VNREDSAT 1

Last updated on Sat Nov 01 2025 00:02:29 GMT+0000 (Coordinated Universal Time)

1 39160U 13021B 25304.68153826 .00000965 00000+0 18931-3 0 9993 2 39160 97.9432 1.4196 0001570 95.8181 264.3202 14.64823627666832
UTC large
Height (km)
Speed (km/s)
/
Latitude / Longitude
Inclination (degrees)
Orbital Period (minutes)
Azimuth
Elevation
Range (km)
Doppler Factor

Next 0 passes for location: London (51.5072 / 0.1276)

Sorry there are no passes over London.